| time (UTC) | temp F | wind direction | speed knots | gust knots | rain 1hr in | rain 24hr in | rain mn in | humidity % | barometer mb |
| 20260906083016 | 72 | 0.0 | 0.0 | 0.00 | 0.00 | 0.00 | 94 | 1010.2 | |
| 20260906082016 | 72 | 0.0 | 0.0 | 0.00 | 0.00 | 0.00 | 94 | 1010.1 | |
| 20260906081016 | 72 | 0.0 | 0.0 | 0.00 | 0.00 | 0.00 | 94 | 1010.0 | |
| 20260906080016 | 72 | 0.0 | 0.0 | 0.00 | 0.00 | 0.00 | 94 | 1009.9 | |
| 20260906075036 | 72 | 0.0 | 0.0 | 0.00 | 0.00 | 0.00 | 94 | 1009.7 | |
| 20260906074016 | 73 | 0.0 | 0.0 | 0.00 | 0.00 | 0.00 | 94 | 1009.8 | |
| 20260906073016 | 73 | 0.0 | 0.0 | 0.00 | 0.00 | 0.00 | 94 | 1009.8 | |
| 20260906072016 | 73 | 0.0 | 0.0 | 0.00 | 0.00 | 0.00 | 94 | 1009.8 | |
| 20260906071016 | 73 | 0.0 | 0.0 | 0.00 | 0.00 | 0.00 | 93 | 1010.0 | |
| 20260906070036 | 73 | 0.0 | 0.0 | 0.00 | 0.00 | 0.00 | 93 | 1010.3 | |
| 20260906065016 | 73 | 0.0 | 0.0 | 0.00 | 0.00 | 0.00 | 93 | 1010.2 | |
| 20260906064016 | 73 | 0.0 | 0.0 | 0.00 | 0.00 | 0.00 | 93 | 1010.2 | |
| 20260906063016 | 73 | 0.0 | 0.0 | 0.00 | 0.00 | 0.00 | 93 | 1010.5 | |
| 20260906062036 | 73 | 0.0 | 0.0 | 0.00 | 0.00 | 0.00 | 92 | 1010.5 | |
| 20260906061036 | 73 | 0.0 | 0.0 | 0.00 | 0.00 | 0.00 | 92 | 1010.6 | |
| 20260906060056 | 74 | 0.0 | 0.0 | 0.00 | 0.00 | 0.00 | 91 | 1010.7 | |
| 20260906055016 | 74 | 0.0 | 0.0 | 0.00 | 0.00 | 0.00 | 91 | 1010.9 | |
| 20260906054016 | 74 | 0.0 | 0.0 | 0.00 | 0.00 | 0.00 | 91 | 1011.0 | |
| 20260906053016 | 74 | 0.0 | 0.0 | 0.00 | 0.00 | 0.00 | 91 | 1011.0 | |
| 20260906052016 | 74 | 0.0 | 0.0 | 0.00 | 0.00 | 0.00 | 90 | 1011.0 | |
| 20260906051016 | 74 | 0.0 | 0.0 | 0.00 | 0.00 | 0.00 | 90 | 1011.2 | |
| 20260906050036 | 74 | 0.0 | 0.0 | 0.00 | 0.00 | 0.00 | 90 | 1011.2 | |
| 20260906045036 | 74 | 0.0 | 0.0 | 0.00 | 0.00 | 0.00 | 89 | 1011.3 | |
| 20260906044016 | 75 | 0.0 | 0.0 | 0.00 | 0.00 | 0.00 | 89 | 1011.3 | |
| 20260906043016 | 75 | 0.0 | 0.0 | 0.00 | 0.00 | 0.00 | 89 | 1011.4 | |
| 20260906042056 | 75 | 0.0 | 0.0 | 0.00 | 0.00 | 0.00 | 89 | 1011.6 | |
| 20260906041016 | 74 | 0.0 | 0.0 | 0.00 | 0.00 | 0.00 | 90 | 1011.5 | |
| 20260906040016 | 74 | 0.0 | 0.0 | 0.00 | 0.00 | 0.00 | 90 | 1011.5 | |
| 20260906035017 | 74 | 0.0 | 0.0 | 0.00 | 0.00 | 0.00 | 91 | 1011.6 | |
| 20260906034017 | 74 | 0.0 | 0.0 | 0.00 | 0.00 | 0.00 | 91 | 1011.5 | |
| 20260906033017 | 74 | 0.0 | 0.0 | 0.00 | 0.00 | 0.00 | 91 | 1011.6 | |
| 20260906032015 | 74 | 0.0 | 0.0 | 0.00 | 0.00 | 0.00 | 92 | 1011.6 | |
| 20260906031035 | 74 | 0.0 | 0.0 | 0.00 | 0.00 | 0.00 | 91 | 1011.5 | |
| 20260906030015 | 75 | 0.0 | 0.0 | 0.00 | 0.00 | 0.00 | 91 | 1011.5 | |
| 20260906025015 | 75 | 0.0 | 0.0 | 0.00 | 0.00 | 0.00 | 91 | 1011.4 | |
| 20260906024015 | 75 | 0.0 | 0.0 | 0.00 | 0.00 | 0.00 | 90 | 1011.3 | |
| 20260906023015 | 75 | 0.0 | 0.0 | 0.00 | 0.00 | 0.00 | 90 | 1011.4 | |
| 20260906022015 | 75 | 0.0 | 0.0 | 0.00 | 0.00 | 0.00 | 89 | 1011.4 | |
| 20260906021015 | 76 | 0.0 | 0.0 | 0.00 | 0.00 | 0.00 | 89 | 1011.5 | |
| 20260906020015 | 76 | 0.0 | 0.0 | 0.00 | 0.00 | 0.00 | 88 | 1011.3 | |
| 20260906015015 | 76 | 0.0 | 0.0 | 0.00 | 0.00 | 0.00 | 87 | 1011.3 | |
| 20260906014015 | 76 | 0.0 | 0.0 | 0.00 | 0.00 | 0.00 | 87 | 1011.3 | |
| 20260906013015 | 76 | 0.0 | 0.0 | 0.00 | 0.00 | 0.00 | 87 | 1011.0 | |
| 20260906012015 | 76 | 0.0 | 0.0 | 0.00 | 0.00 | 0.00 | 88 | 1011.0 | |
| 20260906011016 | 76 | 0.0 | 0.0 | 0.00 | 0.00 | 0.00 | 87 | 1010.6 | |
| 20260906010035 | 77 | 0.0 | 0.0 | 0.00 | 0.00 | 0.00 | 86 | 1010.5 | |
| 20260906005015 | 77 | 0.0 | 0.0 | 0.00 | 0.00 | 0.00 | 86 | 1010.5 | |
| 20260906004015 | 77 | 0.0 | 0.0 | 0.00 | 0.00 | 0.00 | 85 | 1010.4 | |
| 20260906003036 | 78 | 0.0 | 0.0 | 0.00 | 0.00 | 0.00 | 84 | 1010.3 | |
| 20260906002015 | 79 | 0.0 | 0.0 | 0.00 | 0.00 | 0.00 | 83 | 1010.3 | |
| 20260906001035 | 80 | 0.0 | 0.0 | 0.00 | 0.00 | 0.00 | 82 | 1010.2 | |
| 20260906000015 | 80 | 0.0 | 0.0 | 0.00 | 0.00 | 0.00 | 81 | 1010.0 | |
| 20260905235035 | 81 | 0.0 | 0.9 | 0.00 | 0.00 | 0.00 | 78 | 1009.8 | |
| 20260905234016 | 82 | 0.0 | 0.9 | 0.00 | 0.00 | 0.00 | 75 | 1009.8 | |
| 20260905233015 | 82 | 0.0 | 0.0 | 0.00 | 0.00 | 0.00 | 74 | 1009.7 | |
| 20260905232035 | 83 | 0.0 | 0.0 | 0.00 | 0.00 | 0.00 | 72 | 1009.6 | |
| 20260905231036 | 83 | 0.0 | 0.0 | 0.00 | 0.00 | 0.00 | 71 | 1009.8 | |
| 20260905230035 | 83 | 0.0 | 0.9 | 0.00 | 0.00 | 0.00 | 72 | 1009.8 | |
| 20260905225016 | 84 | 0.0 | 0.0 | 0.00 | 0.00 | 0.00 | 69 | 1009.9 | |
| 20260905224015 | 85 | 0 | 0.9 | 2.6 | 0.00 | 0.00 | 0.00 | 69 | 1009.6 |
| 20260905223015 | 84 | 0.0 | 0.9 | 0.00 | 0.00 | 0.00 | 70 | 1009.3 | |
| 20260905222016 | 84 | 338 | 0.9 | 1.7 | 0.00 | 0.00 | 0.00 | 69 | 1009.4 |
| 20260905221015 | 85 | 0.0 | 0.0 | 0.00 | 0.00 | 0.00 | 70 | 1009.4 | |
| 20260905220015 | 84 | 0.0 | 0.0 | 0.00 | 0.00 | 0.00 | 71 | 1009.5 | |
| 20260905215015 | 83 | 0.0 | 0.9 | 0.00 | 0.00 | 0.00 | 72 | 1009.6 | |
| 20260905214015 | 83 | 0.0 | 0.0 | 0.00 | 0.00 | 0.00 | 72 | 1009.8 | |
| 20260905213016 | 82 | 0 | 0.9 | 3.5 | 0.00 | 0.00 | 0.00 | 72 | 1010.0 |
| 20260905212017 | 82 | 0.0 | 2.6 | 0.00 | 0.00 | 0.00 | 73 | 1010.5 | |
| 20260905211016 | 82 | 0 | 0.9 | 3.5 | 0.00 | 0.00 | 0.00 | 75 | 1010.5 |
| 20260905210016 | 81 | 0.0 | 1.7 | 0.00 | 0.00 | 0.00 | 77 | 1010.4 | |
| 20260905205016 | 81 | 0.0 | 0.0 | 0.00 | 0.00 | 0.00 | 78 | 1010.4 | |
| 20260905204015 | 81 | 0.0 | 2.6 | 0.00 | 0.00 | 0.00 | 78 | 1010.3 | |
| 20260905203015 | 81 | 0 | 0.9 | 3.5 | 0.00 | 0.00 | 0.00 | 78 | 1010.0 |
| 20260905202016 | 81 | 45 | 0.9 | 3.5 | 0.00 | 0.00 | 0.00 | 79 | 1009.8 |
| 20260905201015 | 81 | 0 | 0.9 | 3.5 | 0.00 | 0.00 | 0.00 | 79 | 1009.9 |
| 20260905200015 | 81 | 0.0 | 0.0 | 0.00 | 0.00 | 0.00 | 80 | 1010.2 | |
| 20260905195036 | 81 | 0.0 | 1.7 | 0.00 | 0.00 | 0.00 | 80 | 1010.2 | |
| 20260905194016 | 80 | 45 | 0.9 | 2.6 | 0.00 | 0.00 | 0.00 | 80 | 1010.1 |
| 20260905193016 | 81 | 45 | 1.7 | 3.5 | 0.00 | 0.00 | 0.00 | 79 | 1010.3 |
| 20260905192015 | 80 | 0.0 | 0.9 | 0.00 | 0.00 | 0.00 | 80 | 1010.0 | |
| 20260905191035 | 80 | 135 | 2.6 | 6.1 | 0.00 | 0.00 | 0.00 | 78 | 1009.6 |
| 20260905190015 | 83 | 45 | 6.1 | 12.2 | 0.00 | 0.00 | 0.00 | 71 | 1010.5 |
| 20260905185016 | 94 | 45 | 5.2 | 24.3 | 0.00 | 0.00 | 0.00 | 56 | 1010.7 |
| 20260905184016 | 96 | 23 | 2.6 | 5.2 | 0.00 | 0.00 | 0.00 | 54 | 1010.2 |
| 20260905183016 | 97 | 23 | 2.6 | 6.1 | 0.00 | 0.00 | 0.00 | 53 | 1010.2 |
| 20260905182016 | 97 | 23 | 2.6 | 4.3 | 0.00 | 0.00 | 0.00 | 51 | 1010.0 |
| 20260905181016 | 98 | 0 | 1.7 | 5.2 | 0.00 | 0.00 | 0.00 | 53 | 1010.2 |
| 20260905180016 | 97 | 315 | 1.7 | 4.3 | 0.00 | 0.00 | 0.00 | 52 | 1010.6 |
| 20260905175016 | 97 | 23 | 1.7 | 3.5 | 0.00 | 0.00 | 0.00 | 53 | 1010.8 |
| 20260905174016 | 97 | 45 | 1.7 | 4.3 | 0.00 | 0.00 | 0.00 | 54 | 1011.0 |
| 20260905173015 | 96 | 338 | 0.9 | 3.5 | 0.00 | 0.00 | 0.00 | 59 | 1011.3 |
| 20260905172015 | 96 | 23 | 1.7 | 3.5 | 0.00 | 0.00 | 0.00 | 60 | 1011.5 |
| 20260905171016 | 96 | 90 | 0.9 | 3.5 | 0.00 | 0.00 | 0.00 | 60 | 1011.6 |
| 20260905170116 | 96 | 113 | 0.9 | 3.5 | 0.00 | 0.00 | 0.00 | 58 | 1011.5 |
| 20260905165015 | 95 | 338 | 0.9 | 3.5 | 0.00 | 0.00 | 0.00 | 61 | 1011.8 |
| 20260905164016 | 95 | 45 | 1.7 | 3.5 | 0.00 | 0.00 | 0.00 | 59 | 1012.0 |
| 20260905163016 | 94 | 23 | 0.9 | 4.3 | 0.00 | 0.00 | 0.00 | 62 | 1012.2 |
| 20260905162036 | 94 | 0 | 0.9 | 4.3 | 0.00 | 0.00 | 0.00 | 62 | 1012.3 |
| 20260905161016 | 94 | 23 | 0.9 | 2.6 | 0.00 | 0.00 | 0.00 | 66 | 1012.4 |
| 20260905160016 | 93 | 45 | 1.7 | 5.2 | 0.00 | 0.00 | 0.00 | 65 | 1012.5 |
| 20260905155036 | 93 | 293 | 0.9 | 1.7 | 0.00 | 0.00 | 0.00 | 67 | 1012.6 |
| 20260905154016 | 92 | 45 | 0.9 | 2.6 | 0.00 | 0.00 | 0.00 | 67 | 1012.5 |
| 20260905153016 | 92 | 0 | 0.9 | 3.5 | 0.00 | 0.00 | 0.00 | 67 | 1012.6 |
| 20260905152016 | 91 | 23 | 0.9 | 1.7 | 0.00 | 0.00 | 0.00 | 70 | 1012.6 |
| 20260905151016 | 90 | 23 | 0.9 | 2.6 | 0.00 | 0.00 | 0.00 | 73 | 1012.7 |
| 20260905150036 | 90 | 338 | 1.7 | 3.5 | 0.00 | 0.00 | 0.00 | 72 | 1012.7 |
| 20260905145016 | 89 | 0.0 | 1.7 | 0.00 | 0.00 | 0.00 | 75 | 1012.7 | |
| 20260905144016 | 89 | 0.0 | 1.7 | 0.00 | 0.00 | 0.00 | 74 | 1012.7 | |
| 20260905143016 | 89 | 23 | 0.9 | 3.5 | 0.00 | 0.00 | 0.00 | 75 | 1012.7 |
| 20260905142016 | 88 | 23 | 0.9 | 2.6 | 0.00 | 0.00 | 0.00 | 75 | 1012.8 |
| 20260905141016 | 88 | 0.0 | 0.0 | 0.00 | 0.00 | 0.00 | 76 | 1012.7 | |
| 20260905140016 | 87 | 0.0 | 2.6 | 0.00 | 0.00 | 0.00 | 76 | 1012.7 | |
| 20260905135016 | 87 | 45 | 0.9 | 4.3 | 0.00 | 0.00 | 0.00 | 76 | 1012.8 |
| 20260905134016 | 87 | 0.0 | 2.6 | 0.00 | 0.00 | 0.00 | 77 | 1012.9 | |
| 20260905133016 | 86 | 338 | 0.9 | 3.5 | 0.00 | 0.00 | 0.00 | 78 | 1012.8 |
| 20260905132036 | 85 | 0 | 0.9 | 2.6 | 0.00 | 0.00 | 0.00 | 80 | 1012.9 |
| 20260905131016 | 84 | 0 | 0.9 | 1.7 | 0.00 | 0.00 | 0.00 | 81 | 1012.8 |
| 20260905130056 | 84 | 0.0 | 0.0 | 0.00 | 0.00 | 0.00 | 82 | 1013.0 | |
| 20260905125016 | 83 | 0.0 | 0.0 | 0.00 | 0.00 | 0.00 | 82 | 1012.9 | |
| 20260905124016 | 82 | 0.0 | 0.0 | 0.00 | 0.00 | 0.00 | 83 | 1013.0 | |
| 20260905123016 | 82 | 0.0 | 0.0 | 0.00 | 0.00 | 0.00 | 85 | 1013.0 | |
| 20260905122056 | 81 | 0.0 | 0.0 | 0.00 | 0.00 | 0.00 | 87 | 1013.1 | |
| 20260905121016 | 80 | 0.0 | 0.0 | 0.00 | 0.00 | 0.00 | 89 | 1013.0 | |
| 20260905120036 | 78 | 0.0 | 0.0 | 0.00 | 0.00 | 0.00 | 91 | 1012.9 | |
| 20260905115136 | 77 | 0.0 | 0.0 | 0.00 | 0.00 | 0.00 | 93 | 1012.9 | |
| 20260905114036 | 76 | 0.0 | 0.0 | 0.00 | 0.00 | 0.00 | 94 | 1012.8 | |
| 20260905113016 | 75 | 0.0 | 0.0 | 0.00 | 0.00 | 0.00 | 95 | 1012.6 | |
| 20260905112016 | 75 | 0.0 | 0.0 | 0.00 | 0.00 | 0.00 | 95 | 1012.5 | |
| 20260905111016 | 75 | 0.0 | 0.0 | 0.00 | 0.00 | 0.00 | 94 | 1012.3 | |
| 20260905110016 | 75 | 0.0 | 0.0 | 0.00 | 0.00 | 0.00 | 94 | 1011.9 | |
| 20260905105036 | 75 | 0.0 | 0.0 | 0.00 | 0.00 | 0.00 | 94 | 1011.9 | |
| 20260905104016 | 75 | 0.0 | 0.0 | 0.00 | 0.00 | 0.00 | 94 | 1011.7 | |
| 20260905103016 | 75 | 0.0 | 0.0 | 0.00 | 0.00 | 0.00 | 94 | 1011.7 | |
| 20260905102016 | 75 | 0.0 | 0.0 | 0.00 | 0.00 | 0.00 | 94 | 1011.7 | |
| 20260905101036 | 75 | 0.0 | 0.0 | 0.00 | 0.00 | 0.00 | 93 | 1011.7 | |
| 20260905100016 | 75 | 0.0 | 0.0 | 0.00 | 0.00 | 0.00 | 93 | 1011.8 | |
| 20260905095016 | 76 | 0.0 | 0.0 | 0.00 | 0.00 | 0.00 | 93 | 1011.7 | |
| 20260905094016 | 76 | 0.0 | 0.0 | 0.00 | 0.00 | 0.00 | 93 | 1011.8 | |
| 20260905093016 | 76 | 0.0 | 0.0 | 0.00 | 0.00 | 0.00 | 93 | 1011.9 | |
| 20260905092016 | 76 | 0.0 | 0.0 | 0.00 | 0.00 | 0.00 | 93 | 1011.9 | |
| 20260905091016 | 76 | 0.0 | 0.0 | 0.00 | 0.00 | 0.00 | 93 | 1011.9 | |
| 20260905090016 | 76 | 0.0 | 0.0 | 0.00 | 0.00 | 0.00 | 92 | 1011.9 | |
| 20260905085036 | 77 | 0.0 | 0.0 | 0.00 | 0.00 | 0.00 | 91 | 1012.0 | |
| 20260905084016 | 77 | 0.0 | 0.0 | 0.00 | 0.00 | 0.00 | 90 | 1012.0 |